Flag for Estonia Weather past 2 weeks in Kohtla-Järve, Estonia

Now
54 °F

Sunny.


Feels Like: 54 °F
Forecast: 57 / 62 °F
Wind: 3 mph from East

Location: Johvi

Current Time: Jul 6, 2015 at 8:29:36 AM

Latest Report: Jul 6, 2015 at 7:00 AM


Visibility: 22 mi

Pressure: 30.09 "Hg

Humidity: 72%

Dew point: 46 °F

Location of Kohtla-JärveLocation

Historic Weather in Kohtla-Järve — Graph

°F

Kohtla-Järve temperature yesterday

Maximum temperature yesterday: 71 °F (at 5:00 PM)
Minimum temperature yesterday: 55 °F (at 11:00 PM)
Average temperature yesterday: 64 °F

Past Weeks' High & Low Weather Summary

 TemperatureHumidityPressure
High84 °F (Jul 3, 3:00 PM)100% (Jun 29, 2:00 AM)30.37 "Hg (Jun 29, 2:00 AM)
Low39 °F (Jun 27, 4:00 AM)33% (Jul 2, 4:00 PM)29.72 "Hg (Jun 24, 8:00 AM)
Average61 °F74%30.00 "Hg
* Reported Jun 21 5:00 AM — Jul 6 5:00 AM, Kohtla-Järve, Weather by CustomWeather, © 2015

Note: Actual official high and low records may vary slightly from our data, if they occured in-between our weather recording intervals... More about our weather records

Advertising

Kohtla-Järve weather history for previous 24 hours

 ConditionsComfort  
Time TempWeatherWind HumidityBarometerVisibility
5:00 AM
Mon, Jul 6
51 °FSunny.2 mph84%30.08 "Hg28 mi
4:00 AM51 °FClear.1 mph85%30.07 "Hg31 mi
3:00 AM54 °FOvercast.2 mph85%30.06 "Hg31 mi
2:00 AM52 °FPassing clouds.1 mph86%30.06 "Hg31 mi
1:00 AM50 °FPassing clouds.1 mph95%30.06 "Hg22 mi
12:00 AM53 °FClear.No wind94%30.06 "Hg17 mi
11:00 PM
Sun, Jul 5
55 °FPassing clouds.No wind91%30.04 "Hg25 mi
10:00 PM60 °FSunny.1 mph81%30.04 "Hg28 mi
9:00 PM62 °FPassing clouds.2 mph73%30.05 "Hg28 mi
8:00 PM65 °FSunny.3 mph64%30.05 "Hg31 mi
7:00 PM67 °FScattered clouds.3 mph61%30.05 "Hg22 mi
6:00 PM68 °FPassing clouds.3 mph58%30.05 "Hg22 mi
5:00 PM71 °FSunny.2 mph54%30.05 "Hg22 mi
4:00 PM70 °FPartly sunny.3 mph52%30.06 "Hg25 mi
3:00 PM69 °FScattered clouds.3 mph51%30.06 "Hg22 mi
2:00 PM67 °FPassing clouds.3 mph51%30.06 "Hg22 mi
1:00 PM67 °FOvercast.3 mph51%30.07 "Hg22 mi
12:00 PM66 °FSunny.3 mph53%30.07 "Hg22 mi
11:00 AM67 °FSunny.3 mph60%30.06 "Hg22 mi
10:00 AM65 °FSunny.5 mph68%30.04 "Hg22 mi
9:00 AM63 °FSunny.5 mph68%30.04 "Hg18 mi
8:00 AM63 °FSunny.5 mph73%30.03 "Hg22 mi
Weather by CustomWeather, © 2015

See weather overviewHow to use our weather pages